Location: Unspecified
(0.0000°N, 0.0000°E)
Time: 20:37:40
(UTC+00:00)

STARLINK-31884 - Pass Details

Date: 15 December 2025
Orbit: 482 x 484 km, 43.0° (Epoch: 22 January)

Event Time Altitude Azimuth Distance (km) Brightness Sun altitude
Rises 04:55:34 0° 225° (SW) 2,532 6.8 -13.7°
Reaches altitude 10° 04:57:45 10° 226° (SW) 1,651 5.8 -13.2°
Maximum altitude 05:01:30 85° 312° (NW) 484 3.2 -12.3°
Drops below altitude 10° 05:05:15 10° 43° (NE) 1,644 6.3 -11.4°
Sets 05:07:25 0° 44° (NE) 2,520 7.3 -10.9°
